GCEND KFPY-KTLH

Flight info

Callsign GCEND
Flight time 0h 27m
Altitude 2100
Route KFPY / WACISSA / TALLAHASSEE / KTLH
Aircraft C172/L-VGDW/C

Departure

Time 2026-04-17 09:38
Airport Perry-Foley Airport (KFPY)

Arrival

Time 2026-04-17 10:05
Airport Tallahassee International Airport (KTLH)
Time Latitude Longitude Altitude Speed Heading
2026-04-17 09:28 30.07677 -83.57512 43 ft 0 kts 180°
2026-04-17 09:33 30.07666 -83.57508 43 ft 5 kts 144°
2026-04-17 09:34 30.07654 -83.57446 43 ft 10 kts 91°
2026-04-17 09:34 30.07653 -83.57342 43 ft 17 kts 91°
2026-04-17 09:34 30.07651 -83.57193 43 ft 15 kts 86°
2026-04-17 09:34 30.07582 -83.57143 43 ft 21 kts 179°
2026-04-17 09:35 30.07357 -83.57148 43 ft 38 kts 186°
2026-04-17 09:35 30.07148 -83.57153 42 ft 25 kts 180°
2026-04-17 09:35 30.07021 -83.57156 40 ft 7 kts 185°
2026-04-17 09:35 30.07019 -83.57156 40 ft 0 kts 182°
2026-04-17 09:36 30.07014 -83.57156 40 ft 7 kts 179°
2026-04-17 09:36 30.06937 -83.57192 40 ft 12 kts 295°
2026-04-17 09:36 30.06946 -83.57211 40 ft 0 kts 298°
2026-04-17 09:37 30.06962 -83.57243 41 ft 25 kts 302°
2026-04-17 09:37 30.07153 -83.57615 53 ft 75 kts 300°
2026-04-17 09:37 30.07427 -83.58153 269 ft 75 kts 300°
2026-04-17 09:37 30.07674 -83.58707 479 ft 82 kts 293°
2026-04-17 09:38 30.07937 -83.59302 690 ft 87 kts 301°
2026-04-17 09:38 30.08297 -83.59890 871 ft 92 kts 307°
2026-04-17 09:38 30.08701 -83.60484 1050 ft 95 kts 308°
2026-04-17 09:38 30.09124 -83.61091 1227 ft 96 kts 310°
2026-04-17 09:39 30.09549 -83.61688 1402 ft 97 kts 310°
2026-04-17 09:39 30.09975 -83.62296 1578 ft 97 kts 310°
2026-04-17 09:39 30.10392 -83.62898 1754 ft 96 kts 310°
2026-04-17 09:39 30.10812 -83.63506 1932 ft 96 kts 309°
2026-04-17 09:40 30.11234 -83.64111 2109 ft 96 kts 310°
2026-04-17 09:40 30.11659 -83.64725 2204 ft 104 kts 310°
2026-04-17 09:40 30.12155 -83.65427 2093 ft 117 kts 310°
2026-04-17 09:40 30.12674 -83.66167 2100 ft 117 kts 310°
2026-04-17 09:41 30.13183 -83.66890 2103 ft 117 kts 310°
2026-04-17 09:41 30.13695 -83.67619 2099 ft 115 kts 310°
2026-04-17 09:41 30.14203 -83.68340 2102 ft 115 kts 310°
2026-04-17 09:41 30.14705 -83.69054 2101 ft 115 kts 310°
2026-04-17 09:42 30.15215 -83.69778 2101 ft 115 kts 310°
2026-04-17 09:42 30.15666 -83.70417 2102 ft 115 kts 310°
2026-04-17 09:42 30.15780 -83.70581 2101 ft 115 kts 310°
2026-04-17 09:42 30.16281 -83.71298 2100 ft 115 kts 310°
2026-04-17 09:43 30.16794 -83.72025 2102 ft 115 kts 310°
2026-04-17 09:43 30.17298 -83.72747 2100 ft 115 kts 310°
2026-04-17 09:43 30.17799 -83.73460 2101 ft 115 kts 310°
2026-04-17 09:43 30.18311 -83.74185 2100 ft 115 kts 310°
2026-04-17 09:44 30.18818 -83.74912 2100 ft 115 kts 310°
2026-04-17 09:44 30.19324 -83.75632 2102 ft 115 kts 310°
2026-04-17 09:44 30.19825 -83.76350 2098 ft 115 kts 310°
2026-04-17 09:44 30.20334 -83.77075 2101 ft 115 kts 310°
2026-04-17 09:45 30.20837 -83.77792 2101 ft 115 kts 310°
2026-04-17 09:45 30.21346 -83.78509 2101 ft 115 kts 310°
2026-04-17 09:45 30.21857 -83.79231 2101 ft 115 kts 310°
2026-04-17 09:45 30.22375 -83.79964 2100 ft 115 kts 311°
2026-04-17 09:46 30.22880 -83.80683 2101 ft 115 kts 310°
2026-04-17 09:46 30.23385 -83.81406 2101 ft 115 kts 310°
2026-04-17 09:46 30.23895 -83.82134 2102 ft 115 kts 310°
2026-04-17 09:46 30.24404 -83.82856 2102 ft 115 kts 310°
2026-04-17 09:47 30.24908 -83.83579 2102 ft 115 kts 310°
2026-04-17 09:47 30.25413 -83.84303 2101 ft 115 kts 310°
2026-04-17 09:47 30.25913 -83.85017 2102 ft 115 kts 310°
2026-04-17 09:47 30.26421 -83.85741 2101 ft 115 kts 310°
2026-04-17 09:48 30.26928 -83.86472 2101 ft 115 kts 310°
2026-04-17 09:48 30.27427 -83.87193 2101 ft 115 kts 310°
2026-04-17 09:48 30.27934 -83.87922 2101 ft 115 kts 310°
2026-04-17 09:48 30.28442 -83.88648 2101 ft 115 kts 310°
2026-04-17 09:49 30.28952 -83.89374 2103 ft 115 kts 310°
2026-04-17 09:49 30.29452 -83.90092 2099 ft 116 kts 310°
2026-04-17 09:49 30.29963 -83.90824 2102 ft 115 kts 311°
2026-04-17 09:49 30.30464 -83.91544 2102 ft 115 kts 310°
2026-04-17 09:50 30.30967 -83.92265 2100 ft 116 kts 310°
2026-04-17 09:50 30.31480 -83.92995 2102 ft 115 kts 310°
2026-04-17 09:50 30.31986 -83.93724 2100 ft 115 kts 310°
2026-04-17 09:50 30.32493 -83.94447 2101 ft 116 kts 310°
2026-04-17 09:51 30.32998 -83.95168 2102 ft 115 kts 310°
2026-04-17 09:51 30.33509 -83.95901 2102 ft 115 kts 309°
2026-04-17 09:51 30.34012 -83.96629 2101 ft 116 kts 310°
2026-04-17 09:51 30.34511 -83.97349 2099 ft 115 kts 310°
2026-04-17 09:52 30.35017 -83.98075 2099 ft 115 kts 310°
2026-04-17 09:52 30.35520 -83.98801 2101 ft 115 kts 310°
2026-04-17 09:52 30.36063 -83.99487 2093 ft 114 kts 326°
2026-04-17 09:52 30.36784 -83.99838 2094 ft 113 kts 348°
2026-04-17 09:53 30.37566 -83.99994 2103 ft 113 kts 351°
2026-04-17 09:53 30.38349 -84.00130 2100 ft 113 kts 351°
2026-04-17 09:53 30.39127 -84.00261 2103 ft 113 kts 351°
2026-04-17 09:53 30.39910 -84.00394 2097 ft 113 kts 351°
2026-04-17 09:54 30.40698 -84.00527 2099 ft 113 kts 351°
2026-04-17 09:54 30.41478 -84.00660 2104 ft 113 kts 351°
2026-04-17 09:54 30.42263 -84.00795 2100 ft 113 kts 351°
2026-04-17 09:54 30.43044 -84.00930 2101 ft 114 kts 351°
2026-04-17 09:55 30.43818 -84.01120 2098 ft 114 kts 334°
2026-04-17 09:55 30.44302 -84.01831 2103 ft 117 kts 288°
2026-04-17 09:55 30.44353 -84.02783 2103 ft 119 kts 270°
2026-04-17 09:55 30.44328 -84.03735 2101 ft 119 kts 270°
2026-04-17 09:56 30.44296 -84.04696 2100 ft 119 kts 269°
2026-04-17 09:56 30.44262 -84.05660 2102 ft 119 kts 270°
2026-04-17 09:56 30.44228 -84.06630 2100 ft 119 kts 270°
2026-04-17 09:56 30.44200 -84.07587 2100 ft 119 kts 271°
2026-04-17 09:57 30.44181 -84.08542 2098 ft 119 kts 271°
2026-04-17 09:57 30.44173 -84.08961 2099 ft 119 kts 271°
2026-04-17 09:57 30.44149 -84.09915 2098 ft 119 kts 270°
2026-04-17 09:57 30.44124 -84.10878 2099 ft 119 kts 271°
2026-04-17 09:58 30.44102 -84.11841 2099 ft 119 kts 270°
2026-04-17 09:58 30.44084 -84.12798 2100 ft 119 kts 271°
2026-04-17 09:58 30.44056 -84.13756 2103 ft 119 kts 271°
2026-04-17 09:58 30.44029 -84.14716 2101 ft 119 kts 271°
2026-04-17 09:59 30.44006 -84.15688 2100 ft 119 kts 270°
2026-04-17 09:59 30.43983 -84.16650 2099 ft 119 kts 270°
2026-04-17 09:59 30.43965 -84.17601 2099 ft 119 kts 270°
2026-04-17 09:59 30.43946 -84.18566 2099 ft 119 kts 271°
2026-04-17 10:00 30.43921 -84.19521 2101 ft 119 kts 271°
2026-04-17 10:00 30.43894 -84.20495 2099 ft 119 kts 271°
2026-04-17 10:00 30.43871 -84.21446 2101 ft 119 kts 270°
2026-04-17 10:00 30.43853 -84.22415 2100 ft 119 kts 271°
2026-04-17 10:01 30.43835 -84.23380 2101 ft 119 kts 271°
2026-04-17 10:01 30.43813 -84.24339 2100 ft 119 kts 271°
2026-04-17 10:01 30.43791 -84.25303 2039 ft 122 kts 271°
2026-04-17 10:01 30.43767 -84.26290 1911 ft 122 kts 271°
2026-04-17 10:02 30.43750 -84.27267 1786 ft 122 kts 271°
2026-04-17 10:02 30.43732 -84.28251 1656 ft 121 kts 272°
2026-04-17 10:02 30.43708 -84.29227 1530 ft 121 kts 270°
2026-04-17 10:02 30.43691 -84.30200 1399 ft 121 kts 271°
2026-04-17 10:03 30.43676 -84.31137 1265 ft 113 kts 271°
2026-04-17 10:03 30.43662 -84.32036 1134 ft 109 kts 271°
2026-04-17 10:03 30.43652 -84.32912 1003 ft 105 kts 272°
2026-04-17 10:03 30.43644 -84.33672 928 ft 81 kts 272°
2026-04-17 10:04 30.43630 -84.34238 984 ft 65 kts 269°
2026-04-17 10:04 30.43543 -84.34795 972 ft 74 kts 243°
2026-04-17 10:04 30.43151 -84.35211 884 ft 79 kts 215°
2026-04-17 10:04 30.42665 -84.35577 734 ft 82 kts 210°
2026-04-17 10:05 30.42150 -84.35844 561 ft 82 kts 194°
2026-04-17 10:05 30.41573 -84.35894 349 ft 82 kts 178°
2026-04-17 10:05 30.41013 -84.35891 102 ft 75 kts 180°
2026-04-17 10:05 30.40595 -84.35890 68 ft 45 kts 177°
2026-04-17 10:06 30.40351 -84.35888 62 ft 25 kts 167°
2026-04-17 10:06 30.40314 -84.35825 62 ft 8 kts 34°
2026-04-17 10:06 30.40322 -84.35746 62 ft 18 kts 123°
2026-04-17 10:06 30.40204 -84.35626 60 ft 24 kts 179°
2026-04-17 10:07 30.40147 -84.35557 59 ft 10 kts 309°
2026-04-17 10:07 30.40139 -84.35532 58 ft 12 kts 59°
2026-04-17 10:07 30.40167 -84.35477 59 ft 0 kts 270°
2026-04-17 10:20 33.39148 -84.32531 884 ft 0 kts 323°